Year,Month,Day,Hour,Minute,Value (Times are PST for temperature in C)
2013,04,07,09,21,6.40
2013,04,07,09,22,6.40
2013,04,07,09,23,6.40
2013,04,07,09,24,6.60
2013,04,07,09,25,6.60
2013,04,07,09,26,6.60
2013,04,07,09,27,6.60
2013,04,07,09,28,6.60
2013,04,07,09,29,6.60
2013,04,07,09,30,6.60
2013,04,07,09,31,6.60
2013,04,07,09,32,6.60
2013,04,07,09,33,6.50
2013,04,07,09,34,6.40
2013,04,07,09,35,6.40
2013,04,07,09,36,6.50
2013,04,07,09,37,6.60
2013,04,07,09,38,6.60
2013,04,07,09,39,6.60
2013,04,07,09,40,6.60
2013,04,07,09,41,6.60
2013,04,07,09,42,6.60
2013,04,07,09,43,6.70
2013,04,07,09,44,6.70
2013,04,07,09,45,6.70
2013,04,07,09,46,6.70
2013,04,07,09,47,6.70
2013,04,07,09,48,6.80
2013,04,07,09,49,6.80
2013,04,07,09,50,6.80
2013,04,07,09,51,6.80
2013,04,07,09,52,6.80
2013,04,07,09,53,6.80
2013,04,07,09,54,6.80
2013,04,07,09,55,6.80
2013,04,07,09,56,6.90
2013,04,07,09,57,6.80
2013,04,07,09,58,6.80
2013,04,07,09,59,6.80
2013,04,07,10,00,6.80
2013,04,07,10,01,6.90
2013,04,07,10,02,7.00
2013,04,07,10,03,7.00
2013,04,07,10,04,7.10
2013,04,07,10,05,7.10
2013,04,07,10,06,7.10
2013,04,07,10,07,7.20
2013,04,07,10,08,7.20
2013,04,07,10,09,7.30
2013,04,07,10,10,7.50
2013,04,07,10,11,7.50
2013,04,07,10,12,7.50
2013,04,07,10,13,7.50
2013,04,07,10,14,7.60
2013,04,07,10,15,7.50
2013,04,07,10,16,7.60
2013,04,07,10,17,7.60
2013,04,07,10,18,7.60
2013,04,07,10,19,7.70
2013,04,07,10,20,7.70
2013,04,07,10,21,7.80
2013,04,07,10,22,7.80
2013,04,07,10,23,7.80
2013,04,07,10,24,7.80
2013,04,07,10,25,7.80
2013,04,07,10,26,7.90
2013,04,07,10,27,7.90
2013,04,07,10,28,8.00
2013,04,07,10,29,7.90
2013,04,07,10,30,7.90
2013,04,07,10,31,7.80
2013,04,07,10,32,7.90
2013,04,07,10,33,7.90
2013,04,07,10,34,7.90
2013,04,07,10,35,8.00
2013,04,07,10,36,8.00
2013,04,07,10,37,8.10
2013,04,07,10,38,8.10
2013,04,07,10,39,8.20
2013,04,07,10,40,8.20
2013,04,07,10,41,8.20
2013,04,07,10,42,8.30
2013,04,07,10,43,8.40
2013,04,07,10,44,8.40
2013,04,07,10,45,8.50
2013,04,07,10,46,8.60
2013,04,07,10,47,8.70
2013,04,07,10,48,8.80
2013,04,07,10,49,8.80
2013,04,07,10,50,8.70
2013,04,07,10,51,8.60
2013,04,07,10,52,8.60
2013,04,07,10,53,8.60
2013,04,07,10,54,8.70
2013,04,07,10,55,8.70
2013,04,07,10,56,8.80
2013,04,07,10,57,8.80
2013,04,07,10,58,8.80
2013,04,07,10,59,8.80
2013,04,07,11,00,8.80
2013,04,07,11,01,8.80
2013,04,07,11,02,8.90
2013,04,07,11,03,8.90
2013,04,07,11,04,8.90
2013,04,07,11,05,8.90
2013,04,07,11,06,8.90
2013,04,07,11,07,9.00
2013,04,07,11,08,9.00
2013,04,07,11,09,9.00
2013,04,07,11,10,9.10
2013,04,07,11,11,9.10
2013,04,07,11,12,9.00
2013,04,07,11,13,8.90
2013,04,07,11,14,8.70
2013,04,07,11,15,8.70
2013,04,07,11,16,8.70
2013,04,07,11,17,8.70
2013,04,07,11,18,8.60
2013,04,07,11,19,8.60
2013,04,07,11,20,8.50
2013,04,07,11,21,8.60
2013,04,07,11,22,8.70
2013,04,07,11,23,8.70
2013,04,07,11,24,8.70
2013,04,07,11,25,8.80
2013,04,07,11,26,8.80
2013,04,07,11,27,8.90
2013,04,07,11,28,9.00
2013,04,07,11,29,8.90
2013,04,07,11,30,8.90
2013,04,07,11,31,8.80
2013,04,07,11,32,8.80
2013,04,07,11,33,8.70
2013,04,07,11,34,8.70
2013,04,07,11,35,8.80
2013,04,07,11,36,8.90
2013,04,07,11,37,9.00
2013,04,07,11,38,9.00
2013,04,07,11,39,9.00
2013,04,07,11,40,8.90
2013,04,07,11,41,8.90
2013,04,07,11,42,8.90
2013,04,07,11,43,8.90
2013,04,07,11,44,8.80
2013,04,07,11,45,8.80
2013,04,07,11,46,8.80
2013,04,07,11,47,8.90
2013,04,07,11,48,8.90
2013,04,07,11,49,8.90
2013,04,07,11,50,8.90
2013,04,07,11,51,8.90
2013,04,07,11,52,8.90
2013,04,07,11,53,9.00
2013,04,07,11,54,9.00
2013,04,07,11,55,9.00
2013,04,07,11,56,9.00
2013,04,07,11,57,9.00
2013,04,07,11,58,9.00
2013,04,07,11,59,9.00
2013,04,07,12,00,9.10
2013,04,07,12,01,9.10
2013,04,07,12,02,9.20
2013,04,07,12,03,9.20
2013,04,07,12,04,9.10
2013,04,07,12,05,9.10
2013,04,07,12,06,9.10
2013,04,07,12,07,9.00
2013,04,07,12,08,8.90
2013,04,07,12,09,8.90
2013,04,07,12,10,9.00
2013,04,07,12,11,8.90
2013,04,07,12,12,8.90
2013,04,07,12,13,8.90
2013,04,07,12,14,8.80
2013,04,07,12,15,8.80
2013,04,07,12,16,8.90
2013,04,07,12,17,8.90
2013,04,07,12,18,8.90
2013,04,07,12,19,8.90
2013,04,07,12,20,8.90
2013,04,07,12,21,9.00
2013,04,07,12,22,9.10
2013,04,07,12,23,9.10
2013,04,07,12,24,9.00
2013,04,07,12,25,9.00
2013,04,07,12,26,8.90
2013,04,07,12,27,8.90
2013,04,07,12,28,8.90
2013,04,07,12,29,8.90
2013,04,07,12,30,9.00
2013,04,07,12,31,9.00
2013,04,07,12,32,9.00
2013,04,07,12,33,9.00
2013,04,07,12,34,9.00
2013,04,07,12,35,9.00
2013,04,07,12,36,9.00
2013,04,07,12,37,9.00
2013,04,07,12,38,9.10
2013,04,07,12,39,9.10
2013,04,07,12,40,9.10
2013,04,07,12,41,9.10
2013,04,07,12,42,9.20
2013,04,07,12,43,9.20
2013,04,07,12,44,9.30
2013,04,07,12,45,9.30
2013,04,07,12,46,9.30
2013,04,07,12,47,9.30
2013,04,07,12,48,9.30
2013,04,07,12,49,9.30
2013,04,07,12,50,9.40
2013,04,07,12,51,9.40
2013,04,07,12,52,9.50
2013,04,07,12,53,9.40
2013,04,07,12,54,9.40
2013,04,07,12,55,9.50
2013,04,07,12,56,9.50
2013,04,07,12,57,9.50
2013,04,07,12,58,9.50
2013,04,07,12,59,9.40
2013,04,07,13,00,9.40
2013,04,07,13,01,9.40
2013,04,07,13,02,9.40
2013,04,07,13,03,9.40
2013,04,07,13,04,9.50
2013,04,07,13,05,9.50
2013,04,07,13,06,9.60
2013,04,07,13,07,9.50
2013,04,07,13,08,9.50
2013,04,07,13,09,9.50
2013,04,07,13,10,9.50
2013,04,07,13,11,9.60
2013,04,07,13,12,9.60
2013,04,07,13,13,9.60
2013,04,07,13,14,9.70
2013,04,07,13,15,9.70
2013,04,07,13,16,9.70
2013,04,07,13,17,9.70
2013,04,07,13,18,9.70
2013,04,07,13,19,9.80
2013,04,07,13,20,9.80
2013,04,07,13,21,9.80
2013,04,07,13,22,9.90
2013,04,07,13,23,9.90
2013,04,07,13,24,9.90
2013,04,07,13,25,9.90
2013,04,07,13,26,10.00
2013,04,07,13,27,10.10
2013,04,07,13,28,10.10
2013,04,07,13,29,10.10
2013,04,07,13,30,10.10
2013,04,07,13,31,10.00
2013,04,07,13,32,9.90
2013,04,07,13,33,10.00
2013,04,07,13,34,10.10
2013,04,07,13,35,10.10
2013,04,07,13,36,10.10
2013,04,07,13,37,10.10
2013,04,07,13,38,10.10
2013,04,07,13,39,10.20
2013,04,07,13,40,10.20
2013,04,07,13,41,10.20
2013,04,07,13,42,10.30
2013,04,07,13,43,10.40
2013,04,07,13,44,10.40
2013,04,07,13,45,10.40
2013,04,07,13,46,10.40
2013,04,07,13,47,10.40
2013,04,07,13,48,10.40
2013,04,07,13,49,10.40
2013,04,07,13,50,10.40
2013,04,07,13,51,10.40
2013,04,07,13,52,10.40
2013,04,07,13,53,10.40
2013,04,07,13,54,10.50
2013,04,07,13,55,10.60
2013,04,07,13,56,10.60
2013,04,07,13,57,10.60
2013,04,07,13,58,10.70
2013,04,07,13,59,10.70
2013,04,07,14,00,10.70
2013,04,07,14,01,10.70
2013,04,07,14,02,10.70
2013,04,07,14,03,10.70
2013,04,07,14,04,10.70
2013,04,07,14,05,10.70
2013,04,07,14,06,10.60
2013,04,07,14,07,10.60
2013,04,07,14,08,10.60
2013,04,07,14,09,10.60
2013,04,07,14,10,10.60
2013,04,07,14,11,10.60
2013,04,07,14,12,10.60
2013,04,07,14,13,10.60
2013,04,07,14,14,10.60
2013,04,07,14,15,10.50
2013,04,07,14,16,10.40
2013,04,07,14,17,10.40
2013,04,07,14,18,10.40
2013,04,07,14,19,10.30
2013,04,07,14,20,10.30
2013,04,07,14,21,10.30
2013,04,07,14,22,10.20
2013,04,07,14,23,10.20
2013,04,07,14,24,10.20
2013,04,07,14,25,10.20
2013,04,07,14,26,10.20
2013,04,07,14,27,10.20
2013,04,07,14,28,10.30
2013,04,07,14,29,10.30
2013,04,07,14,30,10.40
2013,04,07,14,31,10.50
2013,04,07,14,32,10.60
2013,04,07,14,33,10.70
2013,04,07,14,34,10.70
2013,04,07,14,35,10.70
2013,04,07,14,36,10.70
2013,04,07,14,37,10.70
2013,04,07,14,38,10.60
2013,04,07,14,39,10.60
2013,04,07,14,40,10.60
2013,04,07,14,41,10.60
2013,04,07,14,42,10.60
2013,04,07,14,43,10.60
2013,04,07,14,44,10.70
2013,04,07,14,45,10.70
2013,04,07,14,46,10.60
2013,04,07,14,47,10.70
2013,04,07,14,48,10.70
2013,04,07,14,49,10.70
2013,04,07,14,50,10.70
2013,04,07,14,51,10.70
2013,04,07,14,52,10.60
2013,04,07,14,53,10.60
2013,04,07,14,54,10.60
2013,04,07,14,55,10.70
2013,04,07,14,56,10.70
2013,04,07,14,57,10.70
2013,04,07,14,58,10.70
2013,04,07,14,59,10.70
2013,04,07,15,00,10.70
2013,04,07,15,01,10.70
2013,04,07,15,02,10.70
2013,04,07,15,03,10.70
2013,04,07,15,04,10.60
2013,04,07,15,05,10.50
2013,04,07,15,06,10.40
2013,04,07,15,07,10.50
2013,04,07,15,08,10.60
2013,04,07,15,09,10.60
2013,04,07,15,10,10.60
2013,04,07,15,11,10.70
2013,04,07,15,12,10.70
2013,04,07,15,13,10.80
2013,04,07,15,14,10.90
2013,04,07,15,15,11.00
2013,04,07,15,16,11.10
2013,04,07,15,17,11.30
2013,04,07,15,18,11.30
2013,04,07,15,19,11.40
2013,04,07,15,20,11.40
2013,04,07,15,21,11.40
2013,04,07,15,22,11.40
2013,04,07,15,23,11.30
2013,04,07,15,24,11.20
2013,04,07,15,25,11.10
2013,04,07,15,26,11.10
2013,04,07,15,27,11.00
2013,04,07,15,28,10.90
2013,04,07,15,29,10.90
2013,04,07,15,30,10.90
2013,04,07,15,31,10.80
2013,04,07,15,32,10.80
2013,04,07,15,33,10.70
2013,04,07,15,34,10.70
2013,04,07,15,35,10.70
2013,04,07,15,36,10.70
2013,04,07,15,37,10.60
2013,04,07,15,38,10.60
2013,04,07,15,39,10.60
2013,04,07,15,40,10.60
2013,04,07,15,41,10.60
2013,04,07,15,42,10.50
2013,04,07,15,43,10.40
2013,04,07,15,44,10.40
2013,04,07,15,45,10.40
2013,04,07,15,46,10.40
2013,04,07,15,47,10.40
2013,04,07,15,48,10.40
2013,04,07,15,49,10.40
2013,04,07,15,50,10.40
2013,04,07,15,51,10.40
2013,04,07,15,52,10.40
2013,04,07,15,53,10.30
2013,04,07,15,54,10.30
2013,04,07,15,55,10.30
2013,04,07,15,56,10.20
2013,04,07,15,57,10.20
2013,04,07,15,58,10.20
2013,04,07,15,59,10.10
2013,04,07,16,00,10.10
2013,04,07,16,01,10.10
2013,04,07,16,02,10.00
2013,04,07,16,03,9.90
2013,04,07,16,04,9.80
2013,04,07,16,05,9.70
2013,04,07,16,06,9.60
2013,04,07,16,07,9.40
2013,04,07,16,08,9.30
2013,04,07,16,09,9.10
2013,04,07,16,10,9.00
2013,04,07,16,11,8.80
2013,04,07,16,12,8.70
2013,04,07,16,13,8.70
2013,04,07,16,14,8.70
2013,04,07,16,15,8.60
2013,04,07,16,16,8.50
2013,04,07,16,17,8.50
2013,04,07,16,18,8.40
2013,04,07,16,19,8.40
2013,04,07,16,20,8.40
2013,04,07,16,21,8.40
2013,04,07,16,22,8.30
2013,04,07,16,23,8.30
2013,04,07,16,24,8.20
2013,04,07,16,25,8.20
2013,04,07,16,26,8.10
2013,04,07,16,27,8.00
2013,04,07,16,28,8.00
2013,04,07,16,29,7.90
2013,04,07,16,30,7.90
2013,04,07,16,31,7.90
2013,04,07,16,32,7.80
2013,04,07,16,33,7.80
2013,04,07,16,34,7.80
2013,04,07,16,35,7.80
2013,04,07,16,36,7.80
2013,04,07,16,37,7.80
2013,04,07,16,38,7.80
2013,04,07,16,39,7.80
2013,04,07,16,40,7.80
2013,04,07,16,41,7.80
2013,04,07,16,42,7.80
2013,04,07,16,43,7.80
2013,04,07,16,44,7.80
2013,04,07,16,45,7.80
